Home > Weather > Oxford > Past weeks

Flag for United Kingdom Past Weather in Oxford, England, United Kingdom — Yesterday and Last 2 Weeks

Now
61 °F

Passing clouds.


Feels Like: 61 °F
Forecast: 47 / 65 °F
Wind: 5 mph from Southwest

Location: Benson

Current Time: May 26, 2016 at 1:39:36 PM

Latest Report: May 26, 2016 at 12:50 PM


Visibility: N/A

Pressure: 30.01 "Hg

Humidity: 55%

Dew Point: 45 °F

Location of OxfordLocation

Past Weather in Oxford — Graph

°F

Oxford Temperature Yesterday

Maximum temperature yesterday: 52 °F (at 12:50 PM)
Minimum temperature yesterday: 43 °F (at 12:50 AM)
Average temperature yesterday: 49 °F

High & Low Weather Summary for the Past Weeks

 TemperatureHumidityPressure
High72 °F (May 12, 2:50 PM)100% (May 12, 12:50 AM)30.21 "Hg (May 12, 12:50 AM)
Low37 °F (May 15, 4:50 AM)44% (May 15, 12:50 PM)29.59 "Hg (May 11, 11:50 AM)
Average54 °F78%29.92 "Hg
* Reported May 11 11:50 AM — May 26 11:50 AM, Oxford, Weather by CustomWeather, © 2016

Note: Actual official high and low records may vary slightly from our data, if they occured in-between our weather recording intervals... More about our weather records

Advertising

Oxford Weather History for the Previous 24 Hours

Scroll right to see more
 ConditionsComfort  
Time TempWeatherWind HumidityBarometerVisibility
11:50 AM
Thu, May 26
59 °FPassing clouds.3 mph59%30.01 "HgN/A
10:50 AM59 °FScattered clouds.3 mph59%30.01 "HgN/A
9:50 AM55 °FPartly sunny.5 mph59%30.01 "HgN/A
8:50 AM54 °FPartly sunny.2 mph77%30.01 "HgN/A
7:50 AM52 °FOvercast.1 mph88%30.01 "Hg5 mi
6:50 AM48 °FMore clouds than sun.3 mph94%30.01 "Hg5 mi
5:50 AM48 °FOvercast.2 mph94%30.01 "Hg4 mi
4:50 AM48 °FOvercast.2 mph94%30.01 "Hg5 mi
3:50 AM48 °FOvercast.2 mph94%30.01 "Hg6 mi
2:50 AM48 °FOvercast.2 mph94%30.01 "HgN/A
1:50 AM50 °FOvercast.3 mph88%30.01 "HgN/A
12:50 AM50 °FMostly cloudy.3 mph88%30.01 "HgN/A
11:50 PM
Wed, May 25
50 °FOvercast.2 mph88%30.01 "HgN/A
10:50 PM50 °FOvercast.2 mph88%30.04 "HgN/A
9:50 PM50 °FOvercast.1 mph88%30.04 "HgN/A
8:50 PM50 °FOvercast.3 mph88%30.04 "HgN/A
7:50 PM50 °FMore clouds than sun.3 mph88%30.01 "HgN/A
6:50 PM52 °FMore clouds than sun.6 mph77%30.01 "HgN/A
5:50 PM52 °FMore clouds than sun.5 mph77%30.01 "HgN/A
4:50 PM52 °FMore clouds than sun.6 mph82%30.04 "HgN/A
3:50 PM52 °FOvercast.7 mph77%30.04 "HgN/A
2:50 PM52 °FMostly cloudy.7 mph77%30.04 "HgN/A
1:50 PM52 °FMore clouds than sun.10 mph77%30.04 "HgN/A
Weather by CustomWeather, © 2016

See weather overviewHow to use our weather pages